Regional Weather Roundup
Issued by NWS

Home | Current Version | Previous Version | Text Only | Print | Product List | Glossary On
Versions: 1 2 3 4 5 6 7 8 9 10 11 12 13 14 15 16 17 18 19 20 21 22 23 24 25 26 27 28 29 30 31 32 33 34 35 36 37 38 39 40 41 42 43 44 45 46 47 48 49 50
000
ASUS43 KLSX 221607
RWRMO

WEATHER SUMMARY FOR MISSOURI
NATIONAL WEATHER SERVICE SPRINGFIELD MO
1100 AM CDT SUN OCT 22 2017

NOTE: "FAIR" INDICATES FEW OR NO CLOUDS BELOW 12,000 FEET WITH NO
       SIGNIFICANT WEATHER AND/OR OBSTRUCTIONS TO VISIBILITY.
       CURRENT SKY AND/OR WEATHER CONDITIONS ARE NOT AVAILABLE FOR
       CHILLICOTHE AND FARMINGTON.

MOZ001>031-035>038-043-044-053-054-221700-
...NORTHERN AND WESTERN MISSOURI...

CITY           SKY/WX    TMP DP  RH WIND       PRES   REMARKS
KANSAS CTY INT PTSUNNY   55  47  74 W8        30.13R
KANSAS C DTWN  CLOUDY    56  48  74 NW9       30.12R
LEE`S SUMMIT   CLOUDY    56  47  71 NW10      30.13R
ST JOSEPH      SUNNY     57  46  66 NW6       30.13R
CHILLICOTHE      N/A     54  50  86 VRB3      30.09S
KIRKSVILLE     CLOUDY    51  50  96 N6        30.07R

$$
MOZ066>068-077>081-088>096-101>105-221700-
...SOUTHWEST MISSOURI...

CITY           SKY/WX    TMP DP  RH WIND       PRES   REMARKS
SPRINGFIELD    LGT RAIN  52  52 100 N14       30.10R FOG
JOPLIN         CLOUDY    53  50  89 NW9       30.15R
BRANSON        LGT RAIN  52  52 100 NW14      30.09R FOG

$$
MOZ032>034-039>042-045>050-055>058-069>072-221700-
...CENTRAL MISSOURI...

CITY           SKY/WX    TMP DP  RH WIND       PRES   REMARKS
COLUMBIA       LGT RAIN  53  51  93 NW15      30.07R FOG
JEFFERSON CITY LGT RAIN  54  50  86 NW12G20   30.06R
ROLLA          LGT RAIN  53  53 100 NW14      30.05R FOG
SEDALIA        LGT RAIN  52  52 100 N9        30.11R
WHITEMAN AFB   PTSUNNY   52  48  88 N3        30.07R
WARRENSBURG    CLOUDY    50  48  93 CALM      30.10S
OSAGE BEACH    LGT RAIN  52  51  97 VRB7      30.09R

$$
MOZ051-052-059>065-221700-
...EAST CENTRAL MISSOURI...

CITY           SKY/WX    TMP DP  RH WIND       PRES   REMARKS
ST LOUIS INTL  CLOUDY    62  60  93 NW12      29.96R
SPIRIT OF STL  CLOUDY    61  59  93 W10       29.97R
ST CHARLES     CLOUDY    60  59  96 W9        29.96R

$$
MOZ072>076-082>087-097>100-106>115-221700-
...SOUTH CENTRAL AND SOUTHEAST MISSOURI...

CITY           SKY/WX    TMP DP  RH WIND       PRES   REMARKS
CAPE GIRARDEAU PTSUNNY   72  62  71 S25G32    29.97S
FARMINGTON     CLOUDY    64  60  87 NW5       29.97F
POPLAR BLUFF   CLOUDY    70  62  76 S7        29.97R
WEST PLAINS    CLOUDY    60  58  92 W7        30.03S

$$



USA.gov is the U.S. government's official web portal to all federal, state and local government web resources and services.